Zurück zum Katalog

CZ-3A DEB

AktivGTO
NORAD 35556·DEBRIS·🇨🇳 China

Gestartet Feb 2, 2007 von Xichang Satellite Launch Center

Loading…

TLE

VeraltetSource: Space-Track

Epoche: Sep 12, 2026, 07:39 UTC

1 35556U 07003Q   26255.31927622  .00000308  00000-0  33826-2 0  9991
2 35556  25.1560 229.7374 7175168 102.1552 339.7086  2.27237015 17452

Verfolge CZ-3A DEB in Echtzeit mit AllMySat

Download on the App Store